Temp
17 17 18 18 19 19 20 20 21 21 22 23 23 24 25 26 26 27 28 28 28 27 27 27 27 25 22 22 23 23 21 22 22 22 22 21 20 20 19 18 18 17 17 17 16
16 17 17 18 18 19 19 20 20 21 22 22 23 23 24 25 27 28 27 28 27 27 27 27 27 26 24 23 24 22 20 23 24 23 22 21 21 20 19 18 16 16 16 16 16
16 16 17 17 18 18 19 19 20 21 21 22 23 23 24 24 26 27 27 27 27 27 27 27 27 26 24 25 25 23 23 24 24 24 23 21 21 20 19 19 17 16 16 16 16
14 15 16 16 17 18 19 20 20 20 21 22 22 23 23 24 25 27 27 27 27 28 28 27 27 27 26 25 26 25 25 25 23 23 22 21 20 19 19 18 19 16 16 16 16
14 14 15 16 17 17 18 19 20 20 20 21 22 22 22 23 26 27 27 27 27 27 28 28 28 27 25 25 26 25 24 24 23 23 22 22 20 19 16 16 17 16 16 15 16
13 14 14 15 16 17 18 19 19 20 20 21 21 21 21 19 26 27 27 27 27 27 28 28 27 27 27 25 24 24 23 23 23 23 21 19 19 20 16 16 16 16 16 16 16
13 14 14 15 15 16 18 18 19 20 20 20 20 20 20 22 25 26 26 26 27 27 28 29 28 27 27 25 25 24 21 21 22 21 20 22 19 17 16 16 15 15 16 16 16
12 13 13 15 15 16 17 18 19 20 20 20 20 19 19 24 25 25 26 26 26 26 28 28 28 27 27 26 25 23 21 20 22 22 21 22 20 17 17 17 16 16 16 16 16
12 12 13 14 15 16 17 18 19 20 20 20 19 19 20 23 23 25 25 25 26 27 27 27 27 27 26 22 22 21 21 22 22 23 22 21 19 18 17 17 17 17 17 17 17
11 12 13 13 14 15 17 17 17 17 18 18 18 18 22 23 23 23 24 24 25 27 27 27 27 21 19 21 21 23 23 22 23 22 22 20 20 18 17 17 18 18 18 18 18
10 11 12 13 13 14 16 17 16 17 16 17 17 18 21 22 22 24 24 24 24 26 23 25 22 22 23 22 24 24 24 24 24 24 22 20 20 18 18 17 18 18 18 18 18
9 10 11 12 13 13 13 13 8 8 9 18 18 17 20 19 19 23 23 24 24 22 22 21 21 23 24 24 25 24 24 24 24 24 23 20 21 19 18 18 18 18 19 19 18
8 9 10 12 12 13 12 11 10 10 7 15 19 19 20 20 19 23 23 24 22 20 21 21 23 24 25 24 25 23 23 23 25 24 22 21 21 18 19 19 18 18 19 19 19
8 8 9 11 11 11 11 11 11 11 9 13 15 19 19 21 19 24 24 25 22 21 20 23 24 24 24 25 24 24 24 25 24 23 22 23 21 19 18 18 19 19 19 19 19
8 8 8 8 9 10 11 12 12 11 13 18 17 19 19 20 22 21 24 24 21 21 21 22 22 23 24 25 26 25 25 24 24 23 22 23 21 21 19 18 18 19 19 20 20
8 8 8 8 9 9 10 12 12 11 11 16 19 18 18 19 21 21 22 24 25 23 23 22 24 24 24 26 27 26 25 22 19 19 20 21 22 22 18 21 20 21 20 20 21
7 8 8 9 9 10 10 11 10 9 14 15 14 13 14 17 19 21 20 20 19 19 20 22 23 25 26 26 26 24 22 20 21 20 21 20 21 25 23 21 22 21 21 21 22
7 8 8 8 9 9 10 8 9 12 11 12 12 12 16 16 18 20 19 20 20 20 18 19 21 23 25 25 23 23 23 20 22 21 22 20 21 24 25 25 25 24 27 23 22
7 8 8 8 8 8 8 6 8 10 11 10 12 12 12 13 13 17 18 21 22 19 20 17 21 24 24 25 27 23 23 22 19 20 21 21 22 24 25 22 23 23 23 22 23
7 7 7 7 7 8 5 5 7 9 10 10 9 10 11 11 12 13 18 20 20 20 21 19 21 23 25 27 26 24 24 23 18 23 23 22 23 23 26 22 23 22 23 23 24
6 7 7 7 7 7 3 3 6 9 10 9 9 9 11 11 11 12 16 18 16 20 20 18 20 22 23 23 23 23 22 19 19 19 21 21 22 22 25 22 23 23 24 25 26
5 2 6 7 5 1 3 5 7 8 10 9 10 9 10 11 10 12 12 14 17 16 22 20 17 20 22 24 24 25 22 21 20 21 18 20 23 25 24 23 24 24 26 27 28
3 3 6 6 2 1 2 4 7 7 9 9 9 10 11 10 10 10 13 16 16 15 15 19 17 18 23 22 23 26 22 20 19 18 19 21 23 24 22 23 26 25 25 29 29
3 1 4 5 3 3 3 3 5 7 8 8 9 10 9 10 9 10 12 14 15 15 17 17 15 20 20 22 21 23 22 22 22 19 20 20 25 26 26 24 24 27 27 27 29
3 1 2 -0 2 1 1 3 4 5 7 7 8 9 9 8 8 9 12 12 14 16 15 14 16 19 21 23 24 24 23 21 24 22 25 26 22 24 23 23 26 30 29 27 27
2 2 2 1 1 1 2 3 4 6 6 6 6 8 6 7 9 9 9 11 10 11 11 10 16 18 21 23 24 23 24 23 25 22 24 25 23 23 26 27 27 30 29 27 28
2 2 2 3 1 2 2 5 5 6 6 6 6 6 5 7 8 8 8 9 8 9 10 11 12 13 21 21 22 21 25 22 23 22 25 24 26 25 25 23 27 29 29 30 28
Height
1524 1522 1520 1519 1517 1516 1514 1513 1511 1510 1509 1508 1506 1505 1503 1502 1503 1502 1501 1502 1502 1502 1502 1502 1501 1502 1503 1503 1504 1505 1512 1518 1514 1516 1513 1514 1517 1521 1524 1525 1529 1530 1532 1535 1540
1523 1521 1519 1518 1516 1514 1513 1511 1510 1509 1507 1506 1505 1504 1502 1501 1500 1500 1501 1500 1500 1501 1501 1501 1501 1501 1502 1501 1501 1503 1513 1506 1498 1502 1508 1514 1517 1521 1525 1527 1531 1531 1534 1540 1543
1522 1519 1518 1516 1514 1512 1511 1509 1508 1507 1506 1504 1504 1502 1501 1500 1500 1499 1499 1500 1500 1500 1500 1500 1501 1500 1500 1500 1499 1499 1504 1495 1499 1501 1507 1513 1518 1521 1523 1527 1529 1530 1533 1539 1545
1521 1518 1516 1514 1512 1510 1508 1507 1506 1504 1503 1502 1502 1500 1500 1501 1505 1498 1497 1498 1499 1500 1500 1499 1499 1499 1498 1498 1495 1499 1495 1495 1500 1503 1509 1515 1518 1521 1524 1526 1525 1528 1533 1538 1544
1519 1517 1514 1512 1509 1507 1505 1504 1503 1501 1500 1499 1499 1498 1499 1499 1495 1496 1496 1496 1497 1499 1499 1498 1497 1497 1500 1497 1495 1498 1498 1499 1501 1505 1511 1515 1519 1522 1525 1524 1525 1529 1536 1540 1545
1519 1515 1512 1510 1507 1504 1502 1500 1499 1498 1497 1496 1497 1496 1497 1497 1493 1493 1493 1494 1495 1497 1497 1497 1497 1498 1497 1497 1496 1500 1500 1505 1508 1511 1513 1517 1521 1522 1527 1527 1530 1532 1536 1541 1545
1517 1515 1511 1507 1504 1502 1499 1497 1494 1493 1493 1492 1493 1492 1492 1485 1489 1489 1488 1489 1491 1493 1494 1495 1496 1498 1496 1497 1501 1502 1511 1511 1514 1514 1518 1517 1524 1526 1527 1529 1532 1535 1537 1541 1545
1516 1513 1509 1506 1502 1499 1496 1493 1490 1488 1488 1489 1489 1489 1484 1483 1480 1481 1485 1485 1488 1490 1492 1493 1494 1494 1494 1498 1502 1509 1514 1526 1515 1516 1517 1518 1529 1526 1527 1527 1532 1536 1538 1541 1544
1515 1511 1507 1504 1500 1495 1492 1489 1485 1484 1484 1485 1486 1487 1480 1476 1474 1477 1478 1480 1484 1488 1489 1491 1493 1493 1496 1501 1513 1516 1527 1522 1519 1512 1514 1519 1526 1524 1526 1527 1530 1534 1537 1540 1543
1515 1510 1506 1502 1498 1493 1489 1486 1484 1482 1482 1483 1483 1487 1475 1473 1472 1473 1474 1475 1479 1483 1488 1490 1491 1496 1499 1506 1532 1521 1520 1518 1518 1511 1513 1519 1520 1523 1525 1526 1527 1531 1534 1537 1539
1513 1509 1505 1501 1496 1493 1489 1486 1487 1484 1481 1477 1476 1471 1467 1468 1470 1471 1472 1472 1476 1480 1486 1485 1496 1505 1496 1495 1497 1503 1509 1512 1507 1504 1511 1516 1518 1520 1522 1525 1526 1528 1531 1533 1536
1513 1508 1504 1501 1497 1494 1492 1489 1495 1497 1482 1472 1469 1468 1465 1467 1470 1468 1470 1472 1472 1479 1480 1489 1497 1487 1488 1493 1495 1501 1509 1512 1506 1504 1508 1515 1516 1518 1519 1518 1520 1523 1526 1529 1533
1512 1507 1502 1500 1497 1496 1494 1495 1496 1494 1490 1463 1459 1458 1459 1465 1463 1462 1467 1468 1469 1475 1478 1486 1483 1482 1487 1493 1498 1503 1508 1509 1508 1506 1508 1513 1519 1518 1514 1516 1518 1520 1522 1525 1528
1512 1507 1502 1498 1499 1496 1496 1496 1495 1492 1494 1465 1453 1447 1450 1456 1455 1454 1462 1465 1467 1473 1477 1481 1475 1479 1486 1489 1492 1506 1491 1496 1503 1515 1528 1508 1538 1517 1509 1510 1512 1512 1515 1518 1522
1511 1507 1503 1500 1498 1497 1497 1495 1494 1494 1504 1450 1447 1446 1446 1449 1446 1444 1451 1460 1465 1467 1472 1479 1476 1480 1483 1480 1482 1492 1486 1494 1500 1512 1515 1517 1530 1507 1502 1510 1504 1502 1505 1510 1515
1509 1506 1501 1499 1497 1495 1494 1492 1494 1503 1500 1454 1445 1446 1449 1446 1444 1443 1447 1454 1458 1464 1465 1468 1465 1469 1471 1472 1474 1481 1490 1503 1513 1523 1539 1519 1519 1504 1505 1487 1489 1492 1497 1502 1508
1507 1503 1499 1496 1495 1493 1492 1492 1502 1506 1466 1462 1459 1455 1454 1447 1445 1442 1446 1451 1462 1479 1478 1468 1467 1462 1463 1475 1476 1484 1501 1535 1539 1542 1538 1516 1520 1490 1476 1472 1473 1480 1489 1495 1501
1504 1500 1496 1494 1492 1491 1492 1494 1497 1479 1475 1469 1465 1458 1452 1449 1442 1441 1445 1451 1448 1455 1477 1483 1489 1464 1455 1460 1477 1486 1493 1528 1540 1544 1528 1517 1521 1486 1459 1460 1466 1473 1479 1489 1496
1500 1497 1496 1493 1492 1491 1492 1501 1488 1482 1481 1478 1467 1466 1462 1457 1458 1445 1445 1442 1438 1444 1464 1481 1476 1452 1452 1453 1456 1484 1496 1487 1520 1521 1526 1515 1496 1468 1458 1461 1465 1470 1478 1485 1490
1499 1496 1495 1493 1491 1492 1494 1497 1490 1485 1482 1480 1482 1477 1476 1469 1464 1458 1445 1433 1438 1436 1438 1456 1475 1452 1451 1451 1455 1460 1467 1500 1517 1527 1532 1520 1507 1496 1463 1465 1463 1469 1473 1480 1485
1498 1495 1495 1493 1491 1492 1500 1499 1490 1485 1485 1485 1486 1483 1477 1475 1471 1464 1451 1440 1439 1435 1437 1449 1458 1458 1451 1455 1460 1466 1477 1490 1495 1510 1528 1535 1513 1466 1457 1457 1458 1461 1467 1474 1479
1499 1498 1494 1491 1494 1496 1497 1493 1489 1486 1485 1485 1483 1482 1480 1478 1475 1468 1463 1453 1444 1440 1438 1442 1459 1467 1456 1445 1441 1445 1464 1471 1501 1511 1516 1517 1499 1453 1451 1450 1456 1459 1463 1470 1475
1501 1498 1494 1491 1499 1499 1494 1492 1488 1486 1484 1485 1484 1482 1479 1481 1482 1472 1461 1450 1449 1448 1454 1444 1456 1476 1460 1455 1447 1447 1456 1462 1475 1489 1506 1513 1494 1451 1449 1450 1454 1459 1462 1465 1471
1504 1502 1496 1494 1497 1498 1497 1493 1490 1486 1485 1483 1482 1481 1481 1478 1477 1472 1466 1455 1448 1450 1445 1446 1452 1449 1462 1450 1447 1454 1453 1455 1463 1494 1495 1493 1474 1458 1450 1449 1453 1456 1460 1464 1466
1505 1503 1502 1502 1498 1499 1498 1495 1492 1490 1485 1483 1481 1480 1480 1482 1478 1473 1466 1462 1451 1448 1445 1449 1451 1443 1440 1437 1436 1438 1445 1454 1453 1463 1468 1462 1475 1457 1450 1447 1445 1447 1453 1459 1464
1505 1504 1502 1501 1499 1498 1495 1493 1491 1488 1488 1485 1485 1483 1484 1484 1479 1476 1473 1470 1468 1454 1456 1454 1449 1440 1441 1436 1436 1444 1437 1439 1441 1451 1452 1452 1459 1438 1437 1441 1443 1443 1447 1450 1452
1502 1503 1503 1499 1497 1497 1495 1490 1491 1490 1487 1486 1486 1486 1483 1477 1476 1474 1472 1471 1467 1469 1467 1465 1461 1459 1440 1438 1443 1452 1429 1439 1437 1437 1438 1452 1437 1431 1434 1436 1435 1437 1439 1438 1439
Wind_Speed
13 14 14 14 14 14 14 14 14 14 14 14 14 15 15 14 12 10 5 3 2 2 2 2 3 4 8 7 9 3 2 3 6 7 4 12 4 3 5 15 5 3 16 29 32
13 13 14 15 15 15 15 15 15 15 15 15 15 16 16 16 13 7 3 5 4 2 2 5 5 6 5 4 6 4 3 7 8 7 6 10 9 7 6 10 7 14 19 32 31
15 15 15 14 15 16 16 16 16 16 16 17 15 16 16 16 12 6 11 13 9 7 6 7 4 6 6 5 5 5 4 4 4 11 22 13 7 5 14 2 8 21 32 35 33
16 16 17 17 17 17 17 17 17 17 17 17 16 16 16 12 4 8 8 2 5 10 7 6 2 1 1 3 5 2 2 5 12 16 15 9 8 8 6 4 6 23 36 37 33
18 18 18 18 18 18 18 18 17 17 18 17 16 17 15 8 17 9 11 13 17 9 8 6 4 6 3 5 4 3 3 8 19 21 17 13 8 6 6 4 13 28 31 34 30
18 19 20 20 20 20 20 19 19 18 17 17 16 16 14 8 17 17 20 22 20 11 8 8 3 9 3 6 5 9 17 15 16 14 10 9 4 1 6 10 21 27 27 27 29
20 19 19 21 21 22 21 20 20 19 17 17 17 17 18 28 15 13 15 18 17 15 11 10 8 5 8 4 11 14 7 8 6 5 4 16 4 3 15 15 18 23 28 26 25
23 22 21 20 22 22 22 21 22 20 17 17 16 15 14 18 24 25 26 27 17 14 15 13 8 5 1 14 5 6 5 4 3 6 9 4 3 5 15 19 17 19 22 24 23
23 24 25 24 23 24 21 20 18 15 15 14 13 10 12 13 18 12 18 22 20 15 16 12 5 2 5 5 4 5 4 3 2 12 5 2 2 11 18 19 19 17 20 21 22
23 24 25 25 26 24 20 14 7 7 5 8 11 4 17 6 5 6 7 10 15 17 12 8 5 3 3 4 7 5 3 1 5 8 5 6 3 11 21 19 20 21 21 21 21
25 25 24 24 25 19 18 6 4 5 6 8 5 7 5 8 6 8 5 9 14 13 7 7 4 6 10 8 5 6 3 6 3 6 5 7 5 13 20 18 17 20 22 22 23
24 26 25 23 23 14 11 9 12 9 13 15 27 30 28 22 10 5 9 9 8 7 6 4 7 10 3 6 5 5 3 3 1 3 3 5 2 8 17 20 22 23 23 25 24
24 25 26 23 17 13 6 13 13 14 5 15 20 23 34 25 13 20 10 9 4 7 8 9 8 8 7 5 5 4 6 5 2 4 3 6 3 5 8 16 19 23 27 27 29
23 25 26 24 9 18 4 12 13 10 3 8 6 9 19 18 8 32 18 7 3 10 9 5 4 8 6 6 7 4 8 6 8 4 3 3 4 5 8 15 17 24 27 30 31
23 23 25 23 22 18 12 12 8 1 5 3 4 1 7 16 7 16 30 19 8 6 8 9 9 8 7 8 9 9 7 8 4 2 4 0 1 6 8 9 18 24 29 32 32
23 22 24 23 20 15 17 9 1 4 8 6 2 2 3 5 4 5 11 16 14 4 1 8 6 9 9 5 14 6 7 7 5 4 1 7 6 5 6 11 16 21 29 34 34
23 21 22 20 19 17 13 5 3 4 6 6 5 7 5 4 4 3 8 9 8 7 5 1 4 3 6 5 5 6 7 1 1 1 5 3 2 11 7 8 13 22 28 33 34
23 19 9 13 11 9 6 3 5 4 5 4 7 10 2 7 5 6 8 11 4 7 6 7 6 9 5 11 9 8 9 6 6 4 3 4 6 7 6 14 24 30 32 34 35
22 16 3 13 10 5 1 2 6 1 5 8 6 6 6 6 7 4 8 11 16 9 8 7 6 3 6 4 14 5 6 8 7 2 3 3 8 10 1 6 15 22 23 30 36
21 16 4 14 6 0 3 3 3 5 6 5 4 5 4 6 9 7 6 4 7 10 4 8 3 5 9 4 3 9 9 4 2 3 2 5 5 6 4 8 10 11 25 32 35
16 6 6 14 2 2 2 5 4 2 15 6 5 5 4 5 3 5 4 5 9 9 7 7 3 4 7 10 9 4 5 6 6 4 6 1 6 8 6 10 15 16 29 36 36
10 3 8 7 2 2 2 2 5 3 5 3 3 4 3 5 4 4 4 3 18 8 14 6 5 4 11 1 6 7 8 7 6 4 2 4 7 3 8 8 16 20 34 37 34
14 6 6 5 2 3 6 4 3 2 0 3 3 2 2 3 5 5 4 11 11 11 5 3 4 2 2 4 3 16 6 6 7 4 8 6 7 4 4 8 21 17 28 36 34
6 3 5 8 4 2 4 4 4 7 4 5 4 5 4 3 6 6 7 9 24 23 23 4 3 11 8 6 6 6 11 8 8 5 6 7 7 5 3 8 11 24 28 32 37
3 1 2 3 3 4 2 2 3 4 5 5 3 4 3 4 5 5 3 6 10 7 9 4 6 7 12 4 3 7 10 10 16 8 12 11 9 10 11 10 20 30 33 32 36
3 2 1 5 7 3 2 3 2 1 3 4 3 6 7 3 5 9 10 3 8 7 9 8 4 6 10 15 15 5 5 17 14 6 6 6 9 10 11 15 16 23 29 35 42
4 3 2 4 3 1 3 1 3 11 7 11 9 11 9 9 12 18 21 19 14 8 5 4 4 6 14 7 4 12 22 8 6 5 11 12 12 5 6 9 20 22 23 29 41
Wind_Direction
332 329 325 322 319 317 315 314 313 311 310 311 313 316 317 319 327 330 352 328 359 294 341 314 295 224 203 227 218 211 62 168 184 159 180 150 123 103 114 128 102 97 141 161 156
335 329 324 320 317 312 307 307 306 306 305 303 306 310 314 317 325 342 22 98 98 70 336 313 328 235 212 227 197 158 146 211 179 156 145 136 120 144 134 128 76 105 136 155 156
340 334 327 320 314 309 305 303 300 300 299 298 300 301 307 318 327 140 118 97 61 27 356 321 296 255 212 200 199 184 211 182 104 128 138 134 113 124 131 189 167 150 152 160 162
348 340 333 325 317 309 303 298 297 296 295 294 296 294 298 307 277 183 187 215 354 357 354 359 316 218 1 302 191 186 287 132 129 131 126 118 116 111 45 322 207 161 162 164 167
343 340 335 330 322 315 307 300 294 289 289 289 290 290 295 274 245 238 237 274 298 314 311 333 19 16 354 289 129 76 45 74 123 122 110 118 86 109 58 61 155 150 157 165 169
340 336 334 329 324 317 310 305 296 286 281 280 280 282 284 254 255 256 259 264 273 284 273 295 312 341 291 15 61 78 83 95 115 115 117 110 120 42 104 128 138 148 156 166 175
340 337 332 329 324 318 315 308 295 279 274 274 273 274 268 255 256 249 249 251 256 255 259 271 303 322 310 110 110 91 75 60 88 98 112 121 39 60 144 145 144 160 169 175 180
338 336 335 332 326 320 317 311 298 281 269 266 266 271 263 277 262 254 252 256 254 235 230 259 299 287 84 120 61 85 55 100 226 164 179 38 239 161 163 155 161 173 180 183 189
335 333 332 332 328 326 322 316 307 287 268 254 252 246 266 254 263 262 244 246 241 230 219 244 278 187 129 101 58 23 178 159 162 209 151 184 226 179 179 174 174 187 193 199 199
335 333 331 331 330 332 327 322 314 307 242 224 230 256 246 235 227 211 241 229 210 206 218 208 192 100 52 95 189 195 229 141 187 195 164 178 218 164 188 191 190 200 204 205 205
337 334 332 333 333 343 338 317 282 279 247 226 217 241 201 227 268 239 284 194 175 178 163 170 118 189 210 188 163 164 200 177 204 178 138 198 170 183 191 209 198 202 207 213 214
339 336 333 336 339 359 3 68 42 334 304 262 257 252 247 261 291 266 192 173 164 167 139 75 195 211 128 154 146 145 147 254 316 153 123 163 244 181 196 210 204 207 215 221 219
339 337 333 338 341 1 19 36 355 330 253 286 247 247 244 245 228 246 194 190 168 141 181 165 208 153 163 173 162 159 185 177 193 148 60 133 315 195 214 215 216 219 221 225 225
337 338 334 335 336 342 327 334 333 316 352 272 239 245 211 210 258 238 212 187 184 179 134 188 209 159 166 196 141 211 200 143 133 116 205 160 271 241 202 207 220 216 213 222 226
335 338 334 335 326 332 315 319 322 162 320 236 202 278 193 182 159 212 219 206 187 178 130 216 172 171 185 188 161 225 149 160 132 126 98 273 22 261 167 209 220 216 214 217 224
333 334 330 326 322 314 315 319 257 47 246 319 63 75 79 257 267 106 168 192 192 143 134 194 195 171 195 169 184 134 84 51 48 82 291 215 169 260 184 210 203 218 213 212 222
335 335 328 321 315 304 310 313 73 179 330 336 343 359 319 230 227 188 170 169 154 140 190 147 211 220 162 139 149 106 94 8 313 334 223 283 152 245 235 216 192 198 208 210 219
339 341 343 15 326 291 292 42 175 232 290 7 331 302 330 352 253 208 155 186 210 123 135 155 205 191 208 191 156 173 152 160 189 189 255 99 231 251 247 201 187 197 207 207 212
336 346 348 354 355 330 239 139 211 24 340 334 318 27 335 348 360 320 199 207 189 164 150 150 245 274 190 177 158 182 154 180 98 7 62 244 289 296 91 137 159 179 184 199 207
336 337 13 348 336 254 72 244 296 347 341 2 45 2 328 326 359 19 173 217 195 189 143 198 167 212 191 135 153 167 151 94 1 137 203 280 280 248 307 190 173 160 180 203 205
334 332 8 340 129 124 170 241 277 14 17 15 4 325 320 350 302 301 285 11 358 199 138 145 110 262 115 197 179 129 135 54 115 126 169 218 262 216 228 198 180 185 190 200 202
350 336 354 337 50 27 172 226 315 344 14 310 269 241 264 341 318 304 317 317 10 311 191 196 138 195 198 163 212 161 165 141 131 217 169 152 270 244 231 190 180 189 194 203 204
337 303 11 14 83 338 316 292 265 283 155 10 323 280 9 319 319 302 288 317 347 13 21 311 194 106 68 20 350 201 188 127 110 96 185 148 265 343 165 153 188 200 197 200 206
333 350 339 48 76 75 352 286 312 334 269 258 241 266 313 286 211 279 310 314 317 314 301 213 198 184 192 210 144 169 181 175 146 144 170 209 252 292 227 174 181 208 216 210 203
309 301 2 313 337 339 270 274 327 342 340 326 316 227 276 289 318 247 278 298 313 358 1 59 218 184 202 211 158 172 176 170 194 178 187 225 202 235 227 205 204 206 214 216 216
280 291 342 297 288 300 260 260 320 358 311 278 240 331 0 289 262 289 327 302 252 334 9 352 301 203 207 219 239 259 222 185 196 166 188 203 239 221 227 221 213 214 214 218 221
232 257 293 248 257 215 234 293 307 319 280 280 299 322 303 274 315 296 280 260 263 293 356 305 349 4 223 163 218 252 232 194 184 169 173 206 223 210 188 201 212 219 215 224 222